Theta_e
322 324 327 328 329 331 331 332 334 334 334 335 337 337 338 339 339 339 339 339 339 339 339 339 339 339 339 339 339 339 339 339 340 340 340 340 340 340 340 340 340 340 340 340 340 340 340 339 339 339 339 339 339 336 334 335 335 335 333 331 328 327 329 332 334 336 340 341 342 344 344 344 343 342 342 343 343 345 345 344 344 344 342 340 344
321 323 326 327 328 329 329 330 330 331 331 332 333 334 335 337 338 338 339 339 339 339 339 339 339 339 339 339 339 339 339 339 339 340 339 339 339 339 339 340 340 340 340 340 340 340 341 340 339 339 340 340 339 338 337 338 337 337 336 333 328 326 326 327 330 332 335 338 341 343 344 344 342 342 341 342 343 345 345 345 345 345 346 344 343
320 322 323 325 326 327 327 327 327 328 328 329 330 331 333 334 335 336 337 338 339 339 339 339 339 339 339 339 339 339 339 339 339 339 339 339 339 339 339 339 339 340 340 339 340 340 341 341 340 340 341 340 340 339 339 339 338 337 338 336 329 325 327 326 326 328 331 335 338 341 343 344 343 342 341 342 342 344 345 346 346 345 346 346 344
319 321 321 323 324 325 326 326 326 327 327 327 328 329 330 331 332 333 335 336 336 337 338 338 338 339 339 339 339 338 338 338 339 339 339 339 339 339 339 339 339 339 339 339 340 340 340 340 340 340 340 340 340 340 339 339 339 338 338 338 333 326 326 327 326 326 327 331 336 339 342 345 345 344 343 342 341 342 345 346 346 346 346 345 344
318 319 320 321 323 324 324 324 324 324 325 325 325 326 327 328 329 331 332 333 334 334 335 335 336 336 337 338 338 338 338 339 339 339 339 339 339 339 339 339 339 339 339 339 340 340 340 340 339 340 340 340 340 340 340 339 339 339 339 338 337 333 328 326 325 325 325 327 331 336 341 344 345 346 345 343 342 341 344 346 346 346 345 345 343
316 317 319 319 322 323 323 323 322 322 322 322 323 323 324 325 326 327 328 329 331 331 332 333 334 334 335 336 336 337 337 337 337 337 338 338 338 338 338 338 338 338 339 339 339 340 339 339 339 339 339 339 340 340 339 339 339 339 339 338 338 337 335 331 327 325 324 323 328 336 341 344 345 345 345 344 343 341 343 345 345 345 345 345 343
314 315 317 318 320 321 321 321 320 319 319 319 320 320 321 321 323 323 325 326 327 328 329 329 330 331 332 333 334 334 335 335 335 336 336 336 336 337 337 337 337 337 338 338 339 339 339 339 339 338 338 338 338 339 338 338 338 337 337 337 337 337 338 337 334 330 325 324 331 338 341 343 344 345 345 344 343 342 342 344 345 345 345 346 344
312 313 314 316 318 318 319 318 318 317 316 317 317 318 318 318 318 319 320 321 322 324 324 325 326 326 327 329 329 330 331 331 332 333 333 333 334 334 335 336 336 336 337 338 338 338 339 339 338 338 338 338 337 338 338 338 338 338 337 336 335 336 336 336 337 336 330 329 335 337 339 341 343 343 344 344 344 343 341 342 345 346 345 345 345
310 311 312 314 315 315 315 315 315 314 313 314 314 315 315 315 315 315 316 317 318 319 320 321 322 322 323 324 325 326 327 328 328 329 330 331 331 332 333 333 334 334 335 336 337 337 338 338 337 338 338 337 337 337 337 337 337 337 338 337 335 334 334 334 335 336 336 336 337 336 338 338 339 342 343 343 343 344 342 341 344 346 345 346 346
307 308 309 311 311 311 311 311 310 309 309 309 310 311 311 312 312 312 312 313 314 315 316 317 317 318 318 319 320 321 322 323 324 325 326 327 328 328 330 331 331 331 333 334 335 335 336 337 336 337 336 336 336 335 336 336 336 336 337 337 337 336 334 334 332 333 337 339 338 338 338 334 330 334 339 341 342 343 343 341 343 346 346 346 346
303 304 304 306 306 306 306 306 306 306 305 305 305 305 306 306 306 307 307 308 309 310 311 312 312 313 314 315 315 316 317 318 319 320 321 322 323 324 325 327 328 328 330 331 331 332 333 334 334 334 335 335 334 334 334 335 335 335 336 336 336 337 336 335 333 335 338 339 339 338 339 336 330 331 334 336 340 342 343 341 341 344 346 346 346
299 299 300 300 301 302 302 303 303 303 303 303 302 302 302 301 301 302 302 302 303 304 305 306 307 308 308 309 310 311 312 313 314 314 315 316 317 318 320 321 323 324 325 327 327 328 329 329 330 331 333 332 332 332 332 333 334 334 334 334 334 335 336 336 336 337 338 338 339 338 338 338 336 336 333 326 332 340 343 342 340 342 344 345 345
297 297 297 298 298 299 299 300 301 302 302 302 302 301 300 300 300 299 299 299 299 300 300 301 301 302 303 304 305 306 306 307 308 308 309 310 311 312 314 316 317 318 320 321 322 323 324 324 325 326 328 329 330 330 331 331 332 333 333 333 333 333 334 334 336 337 337 337 338 338 337 338 338 338 334 325 323 333 342 343 340 341 343 344 344
296 296 296 297 297 297 298 298 298 299 300 300 300 299 299 298 298 298 298 297 298 298 298 298 298 299 299 300 300 301 301 302 302 303 303 304 305 306 307 309 311 312 313 314 315 317 318 319 320 321 322 324 325 327 328 330 330 331 331 331 331 331 332 332 334 336 338 338 338 338 337 337 337 336 336 332 325 326 336 343 342 340 342 343 344
296 296 296 296 296 296 296 297 297 297 297 297 297 297 297 296 296 296 296 296 296 297 297 297 297 297 298 298 298 298 298 298 299 299 299 300 300 301 302 303 304 306 306 307 308 309 310 311 313 314 316 318 320 322 324 326 327 328 329 329 329 328 329 330 332 335 337 337 337 337 337 337 336 334 332 332 330 326 328 337 342 341 340 342 343
295 295 295 296 296 296 296 296 296 296 296 296 296 296 296 296 296 296 296 296 296 296 296 296 296 296 296 297 297 297 297 297 297 297 298 298 298 298 298 299 299 301 301 302 303 303 304 305 306 308 310 312 314 317 319 320 322 324 326 327 328 327 327 328 328 332 335 337 337 337 337 337 336 333 329 327 329 330 327 329 336 340 340 340 341
295 295 295 295 296 296 296 296 296 296 296 296 296 295 295 295 295 295 295 295 295 295 295 296 296 296 296 296 296 296 296 296 296 296 296 296 297 297 297 297 297 297 298 298 298 299 300 301 302 303 305 307 309 311 313 315 316 318 321 322 325 326 326 326 326 327 332 335 336 336 336 336 336 335 331 327 326 329 330 329 331 336 339 339 340
295 295 295 295 295 295 295 295 295 295 295 295 295 295 295 295 295 295 295 295 295 295 295 295 295 295 295 295 295 295 295 295 295 295 296 296 296 296 296 296 296 296 296 296 296 297 297 297 298 299 300 302 304 306 307 309 311 313 315 318 320 322 324 324 325 326 330 332 333 335 336 336 336 335 333 331 328 326 329 330 331 334 336 338 339
295 295 295 295 295 295 295 294 295 295 295 294 295 295 295 295 295 295 295 295 295 295 295 295 295 295 295 295 295 295 295 295 295 295 295 295 295 295 296 295 296 296 296 296 296 296 296 296 296 297 297 298 299 300 302 303 305 307 310 313 315 318 320 323 326 328 329 331 332 334 334 335 336 335 334 333 332 328 327 329 331 333 335 336 337
294 294 295 295 294 294 294 294 294 294 294 294 294 294 294 294 294 295 295 295 295 295 295 295 295 295 295 295 295 295 295 295 295 295 295 295 295 295 295 295 295 295 296 296 296 296 296 296 296 296 296 296 297 297 297 299 300 302 304 307 311 313 316 321 324 325 328 330 332 333 332 332 334 335 334 334 334 332 329 328 329 331 333 334 335
295 295 294 294 294 294 294 294 294 294 294 294 294 294 294 294 294 294 294 294 294 294 294 294 294 294 294 294 294 294 294 294 294 294 295 295 295 295 295 295 295 295 295 295 295 296 296 296 296 296 296 296 296 296 296 296 297 298 299 301 304 309 313 316 317 320 325 328 330 331 331 331 331 332 333 333 333 333 332 330 330 330 330 332 334
296 295 294 294 294 293 293 294 294 294 294 294 294 294 294 294 294 294 294 294 294 294 294 294 294 294 294 294 294 294 294 294 294 294 294 294 294 294 294 295 295 295 295 295 295 295 295 295 295 295 296 296 296 296 296 296 296 296 297 297 300 305 308 309 310 315 320 324 327 329 330 330 329 330 331 332 332 332 333 332 331 330 330 330 332
297 296 295 294 294 293 293 293 293 294 294 294 294 293 294 293 293 293 294 294 294 294 294 294 294 294 293 293 293 293 293 293 293 293 293 294 294 294 294 294 294 294 294 295 295 295 295 295 295 295 295 296 295 295 295 296 296 296 296 296 299 301 301 302 306 311 316 320 323 325 327 328 328 328 329 331 331 331 332 332 331 331 331 331 331
297 297 295 294 294 294 293 293 293 293 293 293 293 293 293 293 293 293 293 293 293 293 293 293 293 293 293 293 293 293 293 292 293 293 293 293 293 293 293 293 294 294 294 294 294 294 294 294 295 295 295 295 295 295 295 295 295 296 296 297 299 299 298 301 305 308 311 314 316 319 322 324 325 326 328 329 331 332 332 332 332 331 332 332 331
297 297 295 294 294 294 293 293 293 293 293 293 293 293 293 293 293 293 293 293 293 293 293 293 293 293 293 292 292 292 292 292 292 292 292 292 292 293 293 293 293 293 293 293 293 293 293 294 294 294 294 294 294 294 294 295 296 296 297 298 297 298 299 301 304 307 309 311 312 313 316 319 321 323 326 327 328 330 332 332 332 332 332 331 332
297 296 296 295 294 293 293 293 293 293 293 293 293 293 293 293 293 293 293 293 293 293 293 293 292 292 292 292 292 292 292 292 292 292 292 292 292 292 292 292 292 292 292 292 292 293 293 293 293 293 293 293 293 294 294 294 295 296 298 297 297 298 300 300 302 305 307 309 309 309 309 310 313 317 322 325 327 328 330 332 331 332 332 332 332
297 296 296 295 294 293 293 293 293 293 293 293 292 292 293 292 292 292 292 292 292 292 292 292 292 292 292 292 292 291 291 291 291 291 291 291 291 291 291 291 292 291 292 292 292 292 292 292 292 292 293 293 293 293 294 295 295 296 298 298 298 298 299 300 301 303 304 306 306 306 305 305 307 309 314 320 324 326 328 330 331 331 332 332 332
297 296 296 295 294 293 293 293 293 293 292 292 292 292 292 292 292 292 292 292 292 292 292 292 292 291 291 291 291 291 291 291 291 291 291 290 291 291 291 291 291 291 291 291 291 291 291 291 292 292 292 293 294 294 295 295 295 297 298 298 298 299 299 299 299 300 301 303 304 304 303 303 303 304 307 312 319 323 325 327 330 331 331 332 332
297 296 295 295 294 293 293 293 293 292 292 292 292 292 292 292 292 292 292 291 291 291 291 291 291 291 291 291 291 291 291 290 290 290 290 290 290 290 290 290 290 290 290 290 291 291 291 291 291 291 291 292 293 294 295 295 296 296 297 298 298 299 299 299 299 299 300 301 302 301 299 299 299 298 299 302 309 316 321 325 327 328 328 330 331
297 296 295 295 294 293 293 293 293 292 292 292 291 292 292 292 292 291 291 291 291 291 291 291 291 291 291 291 291 290 290 290 289 289 289 289 289 289 289 289 289 289 290 290 290 290 290 290 290 290 291 291 292 293 294 295 295 296 296 297 298 298 299 299 299 300 300 301 301 300 298 297 297 297 296 297 299 304 312 319 324 326 327 328 330
296 296 295 295 294 293 293 293 293 292 292 291 291 291 292 291 291 291 291 291 291 291 290 291 290 290 290 290 290 289 289 289 289 289 289 289 288 288 288 288 289 289 289 289 289 289 289 289 289 290 290 290 291 291 293 293 294 295 296 297 297 298 298 299 299 299 300 300 300 300 299 298 297 297 297 297 297 297 300 307 315 322 326 328 329
296 296 295 295 293 293 293 293 292 292 292 291 291 291 292 291 291 291 290 290 290 290 290 290 290 290 290 290 289 289 289 289 289 289 288 288 288 288 288 288 288 288 288 289 289 289 288 288 288 289 289 289 290 290 291 292 293 294 295 295 296 296 297 298 299 299 299 299 300 300 300 299 299 297 296 296 297 297 297 299 304 312 320 325 327
296 295 295 294 293 293 293 293 292 292 292 291 291 291 291 291 291 290 290 290 290 290 290 290 290 290 289 289 289 289 289 289 288 288 287 287 287 287 287 287 287 288 288 288 288 288 288 288 288 288 288 288 289 290 290 290 292 292 292 293 294 295 295 296 297 298 298 299 299 299 299 299 299 298 298 297 296 297 298 298 297 301 310 318 323
296 295 295 294 293 293 293 293 292 292 292 291 291 291 291 291 290 290 290 290 290 290 289 289 289 289 289 289 289 289 289 288 288 287 287 287 286 286 286 286 287 288 288 288 288 288 287 287 287 287 287 288 288 289 289 290 290 291 291 291 292 293 294 295 296 296 297 297 297 298 298 299 299 299 299 298 297 297 297 298 299 299 301 307 314
296 295 294 293 293 293 292 293 292 292 291 290 291 291 291 290 290 290 290 290 289 289 289 289 289 289 288 289 289 288 288 288 287 287 287 286 285 285 285 285 286 287 287 287 288 288 287 287 287 287 287 288 288 288 288 289 290 290 290 291 291 292 292 293 294 295 295 296 296 296 297 298 298 299 299 299 299 298 298 298 299 302 302 303 309
295 294 294 293 293 293 292 292 292 292 291 290 290 290 290 290 290 289 289 289 289 289 289 289 288 288 288 288 288 288 288 287 286 286 286 285 284 285 285 285 286 286 286 287 287 287 286 286 286 286 287 287 287 287 288 288 289 289 290 290 291 291 292 292 293 294 295 295 296 296 296 296 297 298 298 299 299 299 298 297 297 299 301 301 304
295 294 294 294 294 293 292 292 292 292 291 290 290 290 290 289 289 289 289 289 289 289 289 288 288 288 288 288 288 287 287 286 285 285 284 284 284 284 284 284 284 285 285 285 286 286 285 286 286 286 286 286 286 287 287 288 288 288 288 289 290 291 292 292 293 294 295 295 296 296 297 297 297 297 297 298 299 299 298 298 297 297 298 298 299
295 294 293 293 293 293 292 292 292 291 291 290 290 290 290 289 289 289 289 289 289 288 288 288 288 288 288 288 287 287 286 285 284 284 284 284 283 283 283 283 283 283 284 284 285 285 285 285 285 285 285 285 286 286 286 287 287 287 288 289 289 290 291 292 293 294 294 295 296 296 297 297 298 298 298 298 299 299 299 299 299 298 298 298 299
294 294 293 293 293 293 292 292 292 291 291 290 290 289 289 289 289 289 289 288 288 288 288 288 288 288 288 287 287 286 285 284 284 283 283 283 283 283 283 283 283 283 283 284 284 285 285 284 285 285 285 285 285 285 286 286 286 287 288 288 289 291 291 292 293 293 294 295 296 296 296 297 298 298 299 299 298 299 299 300 300 300 300 300 300
294 294 293 293 293 293 292 292 292 291 291 290 290 290 290 289 289 289 289 289 288 288 288 287 287 287 287 287 286 285 284 284 283 283 283 283 283 283 283 282 283 283 283 284 284 284 284 284 284 284 284 284 285 285 285 285 286 287 289 290 291 291 291 292 293 294 294 295 296 296 297 297 298 298 299 299 299 299 299 299 300 301 301 301 300
294 293 293 293 293 293 292 292 292 291 291 291 290 290 290 290 290 290 290 289 288 288 287 287 287 287 287 286 286 285 284 284 283 283 283 283 282 283 282 283 283 283 283 283 283 283 283 283 284 284 284 284 285 285 285 285 286 288 289 289 290 290 291 292 294 294 294 295 296 296 296 297 297 297 298 298 298 299 299 299 299 300 301 301 302
294 293 293 293 293 293 292 292 292 291 291 291 290 290 290 290 290 290 289 289 288 288 288 287 287 286 286 286 285 285 284 284 283 283 283 282 282 282 282 282 282 282 283 283 283 283 283 283 283 283 284 284 284 285 284 285 287 288 287 288 290 291 292 293 294 295 296 296 296 296 296 297 297 297 298 298 298 299 299 300 301 302 302 303 303
294 293 293 293 293 293 292 292 292 291 291 291 290 290 290 289 289 289 289 288 288 287 287 287 287 286 286 285 285 285 284 284 283 283 283 282 282 281 282 282 282 282 283 283 283 283 283 283 283 283 284 284 284 285 284 285 285 286 286 288 290 290 291 293 295 295 295 295 295 295 295 296 296 297 297 297 298 298 299 300 300 301 302 305 307
294 293 293 293 293 293 292 293 292 291 290 290 290 289 289 288 288 288 288 287 287 287 286 286 286 286 285 285 285 285 284 284 284 283 283 282 281 281 282 282 282 282 282 283 283 283 283 283 283 283 283 283 284 284 284 284 284 284 286 288 288 289 290 293 293 292 292 292 293 293 294 294 295 295 296 296 297 298 298 298 299 299 300 302 303
294 293 293 293 293 292 292 292 292 291 290 290 289 289 288 288 288 287 287 287 287 287 287 287 287 286 285 285 285 284 284 284 284 283 282 281 281 281 282 281 281 281 282 282 282 282 282 282 282 282 282 283 283 284 284 283 283 284 285 286 287 288 289 290 289 289 290 291 292 292 293 293 294 295 295 295 296 297 297 297 298 298 298 299 299
294 293 293 292 292 292 292 292 291 290 290 289 289 289 289 288 288 288 288 288 288 288 288 288 287 286 285 285 285 284 284 284 283 283 282 281 280 281 281 281 281 281 281 282 282 282 282 282 282 282 282 282 282 283 283 283 283 283 283 284 285 286 287 287 287 288 289 290 291 292 292 293 293 294 294 295 295 296 297 297 297 298 298 299 300
294 293 292 292 292 292 292 292 291 290 290 289 289 289 289 289 288 288 289 289 289 289 288 287 286 285 285 285 285 284 284 284 283 283 282 281 280 280 280 280 281 281 281 281 281 281 281 281 281 281 281 281 282 282 283 283 283 283 283 283 283 284 285 285 285 286 287 288 289 290 291 292 292 293 294 295 295 296 295 296 296 297 298 299 299
294 293 292 292 292 292 292 291 291 290 289 289 289 289 289 289 288 288 288 288 288 288 287 286 285 285 284 284 285 284 284 284 283 283 282 281 280 280 280 280 281 281 281 281 281 281 281 281 281 281 281 281 281 282 282 282 283 283 283 283 283 283 283 284 284 285 285 286 287 289 290 291 292 292 293 294 294 294 294 295 296 296 297 297 298
293 292 292 291 291 291 292 291 290 290 289 289 289 289 289 288 288 288 288 287 287 287 286 285 284 284 283 283 283 283 283 283 283 282 281 280 280 280 280 280 281 281 281 281 281 281 280 280 280 280 280 280 281 281 281 281 282 282 282 282 283 282 283 283 283 284 284 285 286 288 289 290 291 292 292 293 293 293 294 294 295 296 297 297 297
293 292 291 291 291 291 291 291 290 290 290 289 289 289 288 288 288 287 287 287 287 286 285 285 284 283 283 282 282 282 282 282 282 281 280 280 280 280 281 281 281 281 281 281 280 280 280 280 280 280 280 280 280 280 280 281 281 281 281 282 282 282 282 283 283 284 285 286 286 287 288 289 290 290 291 292 292 293 293 294 295 296 297 297 297
292 292 291 291 291 291 291 290 290 290 290 289 289 289 288 288 287 287 287 287 286 285 285 284 284 283 282 282 282 281 281 281 281 280 280 280 280 281 281 282 282 282 281 281 280 279 279 279 279 279 279 279 279 279 280 280 280 280 281 281 281 282 282 282 283 284 285 285 286 286 287 288 288 289 290 290 291 292 293 294 294 295 296 297 297
Wind_Speed
5 7 10 11 11 11 11 10 10 10 9 9 9 9 9 10 10 9 9 9 8 8 7 7 7 6 6 6 6 6 7 7 6 6 6 6 5 5 5 5 5 5 5 6 7 6 7 7 7 7 9 9 8 10 11 12 13 12 13 13 12 11 10 10 11 11 11 11 10 11 11 12 11 11 10 11 11 10 11 12 12 12 11 10 11
5 6 10 10 9 10 10 9 9 9 8 8 8 8 9 10 10 10 10 10 9 10 9 8 8 8 7 7 7 7 7 7 7 7 7 7 6 6 7 7 8 7 6 6 7 7 7 7 8 7 8 9 9 10 12 12 13 14 14 14 13 12 11 10 10 11 12 12 11 11 12 13 13 12 11 11 11 11 12 13 12 12 12 12 12
3 6 8 7 8 9 9 9 8 8 8 7 7 8 7 8 9 10 10 9 10 10 10 9 9 9 9 8 8 7 7 7 7 7 8 8 7 8 7 8 8 8 8 8 7 8 7 7 8 8 9 10 9 10 12 12 13 14 15 15 14 12 12 12 11 11 12 13 12 12 12 13 14 14 13 12 11 11 12 13 13 13 13 13 13
3 5 5 6 8 9 9 9 8 8 8 7 7 7 7 7 7 7 8 8 8 8 8 9 9 10 10 9 9 8 8 8 7 7 7 8 8 8 8 8 8 8 8 9 9 9 9 8 7 8 9 10 9 10 11 11 11 12 14 16 15 12 11 13 13 11 11 12 13 13 12 12 13 14 14 13 12 11 12 14 13 13 13 14 14
4 3 3 6 9 9 9 9 7 8 7 7 7 7 7 7 6 6 6 6 7 8 8 8 9 9 9 9 9 9 8 8 8 7 6 7 7 7 7 7 7 8 8 9 9 9 9 10 9 9 8 9 8 8 10 11 10 11 14 16 16 13 11 12 13 13 12 12 13 14 13 12 13 13 14 14 13 12 13 14 14 14 14 15 16
5 4 5 7 9 8 8 8 6 6 6 6 6 6 6 6 6 6 6 5 6 8 9 9 9 9 8 8 8 8 8 7 8 8 7 7 6 7 7 7 7 7 8 9 9 9 9 10 10 10 10 10 9 8 8 9 11 12 13 15 16 15 12 12 12 13 13 12 13 13 12 13 13 13 14 14 14 13 13 15 15 15 15 16 17
6 6 7 7 8 8 7 7 6 6 6 6 6 6 5 5 5 5 6 6 6 7 8 8 8 7 7 6 5 7 7 5 7 7 6 6 7 7 6 6 6 6 7 8 9 9 9 9 9 10 11 12 11 10 9 8 10 11 12 13 14 14 13 12 12 13 13 12 11 10 11 12 13 13 14 15 16 14 14 16 16 16 16 17 17
7 6 7 7 8 7 7 7 6 6 6 6 6 6 5 5 5 5 5 5 6 6 6 6 6 7 6 6 6 7 6 5 6 5 4 5 7 6 5 7 6 5 6 7 8 8 9 9 9 9 10 10 11 12 11 10 10 10 10 12 12 13 13 13 12 12 13 11 10 10 11 12 13 14 14 15 17 16 15 16 17 16 17 17 18
7 7 8 8 8 7 7 7 6 6 6 6 6 6 6 6 6 5 5 5 5 5 5 6 6 7 7 7 8 8 7 5 5 4 4 4 5 4 4 7 7 5 4 4 5 6 7 8 8 8 9 9 9 11 12 12 12 11 10 10 10 11 12 13 13 13 12 10 10 10 11 12 13 14 15 16 17 17 16 16 17 17 18 18 19
8 7 9 9 8 8 8 7 7 7 6 6 6 6 6 6 6 5 5 5 4 5 4 5 5 6 6 7 7 7 7 6 6 5 5 5 5 5 4 6 5 3 2 3 4 4 5 7 7 7 8 9 9 10 10 12 13 13 12 10 10 10 11 12 13 14 12 11 11 11 11 13 15 15 16 17 17 17 17 17 17 17 17 18 20
8 8 9 9 9 9 8 7 7 7 7 7 6 6 6 6 6 6 6 5 5 5 4 5 5 5 5 6 6 6 7 7 6 6 6 6 6 6 6 6 5 4 5 5 6 6 5 6 6 7 8 9 9 10 11 11 12 12 13 12 11 11 11 12 12 12 12 13 13 12 12 14 15 15 17 18 19 18 18 19 19 19 19 19 21
9 9 9 9 9 8 8 7 7 7 7 6 6 6 6 6 6 6 6 6 6 5 5 5 5 5 5 5 5 6 6 6 7 7 6 6 6 7 7 8 8 7 7 7 7 8 7 8 9 9 10 11 11 11 11 12 13 13 13 13 13 13 13 13 12 12 13 12 13 13 13 14 14 14 17 19 20 20 19 20 20 20 21 21 22
10 9 9 9 9 9 8 7 7 6 6 6 6 6 6 5 5 6 5 6 5 5 5 5 5 5 6 6 6 6 7 7 7 8 7 7 7 7 8 8 9 8 8 9 8 8 9 10 11 11 11 12 12 12 13 13 14 14 14 14 14 14 15 15 13 13 14 13 13 13 13 13 14 16 18 18 19 21 21 20 21 21 22 22 23
10 10 10 9 8 8 8 7 7 6 6 6 6 6 6 6 5 5 5 5 5 5 5 5 5 6 6 6 7 7 8 8 9 9 9 9 8 8 8 9 9 10 10 10 10 10 10 11 12 12 12 13 13 13 14 15 15 16 16 16 16 16 16 16 15 13 14 14 13 13 13 13 14 16 19 18 18 20 22 22 22 22 23 23 24
11 11 10 9 8 7 7 6 6 6 6 5 6 5 5 6 6 6 6 6 6 6 6 6 6 6 7 7 7 8 8 9 10 10 10 10 10 10 9 10 10 11 11 11 12 12 12 12 13 14 14 14 15 15 16 16 16 17 17 18 18 18 17 18 17 15 15 15 15 14 13 13 14 17 19 19 18 19 21 23 23 24 24 24 26
11 11 10 10 9 8 7 6 6 5 6 6 6 6 6 6 6 6 6 6 6 6 6 7 7 7 8 8 8 8 9 9 10 10 11 11 11 11 11 11 11 12 12 12 13 13 13 14 14 15 15 16 16 17 17 18 18 18 19 19 20 20 20 19 19 17 16 16 16 16 15 15 16 17 19 19 19 19 20 23 24 25 26 25 26
11 11 10 10 9 9 8 8 7 6 6 6 6 7 7 7 7 8 7 8 8 8 8 8 8 8 9 9 9 9 9 10 10 10 10 11 11 11 12 12 13 13 13 13 14 14 14 15 15 16 16 17 18 18 18 19 19 19 20 20 21 21 21 21 21 20 17 17 17 17 17 17 17 18 19 20 20 20 21 22 24 25 26 27 27
11 11 11 10 9 9 9 9 8 7 7 6 6 7 7 7 8 8 9 9 10 10 10 10 10 10 10 10 10 10 10 11 11 11 11 11 11 11 11 12 13 14 14 14 15 15 15 16 16 17 17 18 19 19 19 19 20 20 21 21 21 21 22 22 22 21 18 18 20 19 18 18 19 20 20 20 21 21 21 22 24 24 25 28 29
12 12 11 11 10 9 9 9 8 8 7 7 7 7 7 7 7 8 8 9 9 10 10 11 11 11 11 11 11 11 11 12 12 12 13 13 13 12 12 12 13 13 14 14 15 16 16 17 17 18 19 20 21 20 20 20 20 20 21 22 22 23 23 21 19 18 18 18 19 20 20 20 20 21 20 20 21 22 22 22 24 24 24 27 29
12 12 11 11 11 10 9 9 9 8 8 8 8 8 7 7 7 7 8 8 9 9 10 10 10 11 11 11 12 12 12 13 13 13 14 14 15 15 15 14 14 14 15 15 15 16 16 17 17 18 19 20 21 21 21 21 21 21 21 21 22 23 21 18 17 18 17 16 17 19 22 23 23 23 23 21 21 22 23 23 24 25 25 26 28
12 11 10 10 10 9 9 9 8 8 8 8 7 8 8 8 8 8 8 9 9 9 9 10 10 11 11 12 13 13 13 14 14 14 14 14 14 15 15 15 16 16 16 16 16 17 17 17 17 17 18 19 20 21 22 22 22 22 22 22 21 19 17 18 20 19 18 17 17 18 21 24 25 25 25 24 23 23 24 24 25 26 26 26 27
11 10 10 10 10 9 9 8 8 7 7 7 7 8 8 8 7 8 8 9 9 9 10 10 11 12 12 13 14 14 14 15 14 14 14 14 14 14 15 15 15 16 16 17 17 18 18 18 19 19 19 18 19 19 20 21 22 23 23 23 20 17 16 19 20 19 19 19 18 18 20 23 25 26 26 26 26 26 26 26 27 27 28 27 27
12 11 12 12 11 10 10 9 8 7 6 6 7 7 7 7 7 7 8 9 9 10 10 11 12 12 13 14 15 15 15 15 15 15 15 16 16 16 16 16 16 17 17 17 18 18 19 19 20 20 21 21 21 20 21 21 22 22 22 22 19 18 19 21 20 18 18 19 19 20 21 23 26 27 27 28 27 28 28 28 28 29 29 29 28
14 13 13 13 12 11 11 10 8 7 6 6 6 6 6 6 6 7 7 8 9 10 10 11 12 12 13 14 14 14 15 15 15 16 17 17 17 18 18 18 19 19 19 19 20 20 20 21 21 21 22 23 23 23 22 22 22 22 21 20 19 20 21 20 18 18 18 20 22 22 22 23 25 26 27 29 29 28 29 29 30 30 30 30 30
15 14 13 14 13 12 12 11 9 8 6 6 6 5 6 5 5 6 7 7 8 9 10 10 11 11 12 12 13 13 14 14 15 16 17 17 18 19 20 20 20 21 21 22 22 22 22 23 23 23 23 23 23 24 24 23 22 21 20 19 20 20 20 19 18 17 17 19 21 23 23 23 25 25 26 28 30 29 29 30 31 31 31 31 31
15 15 14 14 14 13 13 11 10 8 7 6 6 5 5 5 5 5 6 6 7 7 8 9 10 10 11 11 12 12 13 14 14 15 15 16 17 18 18 19 20 21 22 22 22 23 23 23 23 23 24 24 24 24 24 23 22 21 20 20 21 20 19 18 18 17 17 17 19 23 26 26 27 26 26 27 30 31 30 30 32 33 32 33 32
17 15 15 15 15 15 14 12 10 9 8 6 6 5 5 5 5 5 5 5 6 6 7 8 9 9 10 11 12 12 13 14 14 15 15 16 16 16 16 17 18 19 19 20 21 21 21 22 22 22 23 22 23 23 22 21 22 21 19 19 20 20 20 19 18 18 18 19 20 23 25 27 28 28 27 26 28 31 32 31 31 33 33 33 34
17 16 16 16 16 16 14 13 11 9 8 6 6 5 5 5 4 4 4 5 5 5 6 7 7 8 9 10 11 12 13 13 14 15 16 16 16 16 16 16 17 17 18 18 19 19 19 19 20 21 21 20 20 19 18 19 20 18 17 18 19 20 20 20 20 20 20 20 21 23 25 26 28 29 30 29 28 29 32 33 32 33 33 34 34
19 18 18 17 17 17 15 13 12 10 8 7 6 5 5 4 4 4 3 4 4 5 5 6 7 8 9 9 10 11 12 12 14 15 15 16 16 17 17 17 17 18 18 18 19 19 19 18 18 19 19 19 19 18 17 17 17 17 17 18 19 19 20 20 21 22 22 21 21 24 27 29 31 32 32 32 31 30 30 32 33 35 36 35 36
20 20 20 18 18 18 16 14 13 11 9 7 6 6 5 4 4 3 3 3 3 4 5 5 6 7 8 9 9 10 11 11 13 14 14 15 16 16 16 17 17 18 19 19 19 19 19 19 19 19 18 18 18 17 17 17 17 17 17 17 18 19 19 19 20 21 21 21 22 25 28 30 32 34 34 34 34 34 33 32 33 34 35 36 37
21 22 21 20 21 20 17 16 14 12 10 8 7 7 6 5 4 3 3 3 3 3 4 4 5 6 6 7 8 8 9 10 11 12 13 14 15 15 16 16 17 18 18 19 19 20 20 19 19 20 20 20 19 18 17 17 18 18 17 18 18 18 18 19 20 21 21 22 23 24 27 29 31 33 35 35 35 35 35 34 35 34 35 36 37
22 24 21 21 23 20 18 17 15 12 10 8 8 7 6 6 5 3 3 2 2 2 3 3 4 4 5 6 7 7 8 9 10 12 13 13 14 15 16 17 17 18 19 19 20 21 20 19 21 22 21 21 21 21 21 19 18 18 18 19 20 19 19 19 19 20 21 22 23 24 26 27 29 32 34 36 36 36 35 35 36 36 37 38 37
22 23 22 24 24 20 19 17 15 13 10 9 8 7 7 6 5 4 3 2 1 1 1 2 3 3 4 5 6 7 8 9 10 11 12 13 14 15 16 16 17 19 20 20 21 20 19 20 22 21 20 20 19 19 21 20 19 19 20 20 20 20 21 20 20 21 21 22 24 24 25 27 28 30 32 35 37 37 36 36 36 37 38 40 40
22 22 25 26 24 22 21 19 16 14 11 10 9 9 9 8 6 5 4 2 2 0 0 1 2 3 4 5 6 7 8 9 10 11 12 13 13 14 15 16 17 19 20 20 21 21 20 21 22 20 20 19 18 18 19 19 19 20 21 22 20 21 22 21 22 22 23 24 25 25 25 26 27 27 28 32 35 36 36 36 35 35 37 40 42
24 25 28 26 24 25 23 20 18 15 12 11 11 11 11 9 8 6 5 4 2 2 2 2 3 3 4 5 7 7 8 9 10 11 12 12 13 13 14 15 17 19 19 20 21 21 21 22 22 19 19 18 18 21 20 19 19 19 20 20 20 21 22 22 23 24 24 24 25 26 27 27 26 26 27 28 30 32 34 35 34 33 34 37 40
27 29 29 26 25 25 23 21 19 16 14 13 13 13 11 10 9 7 6 4 3 3 3 3 3 4 4 5 7 7 8 9 10 11 12 12 13 12 13 15 17 18 18 19 20 19 20 22 21 19 18 18 19 21 21 20 20 21 21 21 22 23 23 22 23 23 24 24 24 25 27 28 28 28 28 28 28 31 34 35 36 35 35 36 38
29 32 30 27 25 25 24 22 20 17 15 14 14 13 12 10 9 8 7 5 4 4 4 5 4 5 5 6 7 8 8 9 10 11 11 12 13 13 14 15 17 17 17 17 16 17 17 18 18 17 16 17 18 19 20 20 21 23 24 24 25 24 23 22 23 24 24 24 25 26 25 26 28 29 29 28 28 29 31 33 35 36 37 37 38
30 32 32 29 26 25 26 23 20 18 16 15 15 13 12 11 9 8 7 6 6 6 6 6 5 6 6 7 8 9 9 10 10 11 11 12 12 14 15 15 16 15 15 15 15 15 16 15 16 16 15 16 17 17 19 20 21 23 25 27 26 25 24 24 24 24 24 24 25 26 26 25 25 26 27 27 27 27 28 29 31 33 35 36 37
31 31 32 30 25 25 26 24 22 20 17 16 15 14 13 11 10 9 8 7 7 7 7 7 7 7 7 8 9 9 9 10 11 11 11 12 13 14 15 16 15 14 14 14 14 14 15 16 16 16 16 16 16 18 19 20 22 24 26 28 27 25 25 24 25 25 25 25 26 26 26 25 24 23 24 25 26 27 26 27 27 28 30 32 34
33 31 31 31 27 26 27 25 24 21 19 17 16 14 12 11 10 8 8 8 8 8 8 9 8 9 9 9 9 10 10 11 12 12 12 13 14 14 15 15 14 12 12 12 13 14 15 16 15 15 17 16 15 15 16 18 23 25 25 25 23 24 26 26 26 25 25 25 25 24 23 22 22 21 22 23 24 25 26 26 26 26 28 30 32
33 33 32 32 29 28 29 26 25 24 21 19 17 15 13 11 10 9 8 7 8 8 8 9 10 10 10 10 10 10 11 12 13 13 13 14 14 14 14 14 13 12 12 12 14 14 14 13 13 14 15 15 14 13 13 17 21 20 20 23 24 24 24 24 24 25 26 25 22 20 20 21 22 21 22 23 23 25 25 25 26 26 27 28 29
33 35 35 34 30 29 31 28 26 26 22 20 18 16 14 12 11 9 9 8 8 8 8 9 11 12 11 11 11 11 12 13 13 13 14 14 14 14 14 14 13 13 12 12 13 13 13 12 13 13 13 13 14 13 12 13 14 15 17 19 20 19 18 17 20 21 19 17 16 17 20 21 23 23 21 22 23 24 24 24 24 24 25 26 26
32 36 36 35 31 30 32 29 28 29 24 22 20 17 15 14 12 10 9 8 8 10 11 11 12 13 12 12 12 12 12 13 14 14 15 15 15 14 14 13 13 13 12 12 12 12 12 12 11 12 13 14 14 12 10 8 11 15 14 11 11 15 15 9 10 14 14 17 21 23 24 24 24 24 24 24 25 25 24 24 25 26 26 26 25
30 34 35 34 33 33 32 30 30 30 26 25 23 18 15 15 13 11 11 10 10 11 13 13 13 13 12 12 12 12 13 14 14 14 15 16 15 14 13 13 13 13 13 12 12 12 12 12 12 12 13 15 15 13 10 9 10 10 9 8 8 9 11 8 12 21 21 20 25 25 24 25 25 25 25 25 26 25 25 25 25 27 27 28 30
31 37 38 36 36 36 34 32 32 30 28 28 25 19 16 14 12 12 11 11 11 11 12 11 11 11 11 11 11 13 13 14 15 14 15 16 15 14 13 13 13 14 13 12 12 12 12 13 12 12 12 14 17 17 14 11 10 9 7 8 8 7 9 12 17 23 21 16 20 23 22 23 24 25 25 27 27 26 27 27 28 28 29 31 32
32 39 43 41 39 39 37 35 33 31 30 29 25 20 17 14 12 11 10 9 10 10 10 10 9 10 11 12 13 13 14 14 15 15 15 15 15 14 14 14 15 15 14 13 13 13 13 12 12 13 13 13 16 18 17 13 11 13 13 13 12 11 13 15 13 14 21 21 20 21 22 22 23 25 26 27 27 26 26 27 28 28 28 29 30
33 39 44 43 41 39 38 38 34 32 31 29 26 22 18 15 13 12 11 10 10 9 10 11 11 12 13 14 14 14 15 15 15 16 16 15 16 15 15 16 17 18 17 17 16 15 15 15 15 14 15 14 14 17 18 15 13 13 14 16 19 20 19 16 11 10 17 21 20 19 20 21 23 25 28 28 28 28 29 29 30 31 30 29 30
33 38 43 43 41 39 40 39 35 32 33 31 28 25 19 15 15 14 13 13 12 11 10 12 13 14 15 14 15 15 16 16 16 17 16 15 15 15 16 17 19 20 20 20 19 19 18 17 17 16 16 16 15 17 19 16 15 14 13 15 17 19 20 21 20 16 12 15 20 20 19 21 23 25 26 28 29 29 30 30 30 31 32 32 32
32 38 43 42 41 40 40 40 36 33 33 31 29 27 21 17 15 14 14 14 14 12 11 11 13 14 15 15 15 16 16 16 17 17 17 16 15 15 16 18 20 20 21 23 22 22 21 18 17 17 16 17 16 18 19 19 18 17 15 16 17 17 19 21 23 22 16 14 16 17 18 19 21 26 27 26 28 29 29 30 30 31 33 33 33
33 39 41 41 41 41 40 39 36 33 33 33 30 28 24 19 17 16 15 14 12 12 11 11 12 13 14 15 15 15 16 17 17 18 17 16 16 17 19 20 21 22 22 25 26 24 20 17 18 17 17 18 18 18 20 21 20 20 18 17 18 17 15 16 17 20 19 16 15 16 19 19 17 22 28 27 29 30 30 30 30 31 33 32 32
32 37 38 41 42 41 41 39 36 34 33 34 32 29 27 22 19 18 18 16 13 12 12 11 11 11 12 13 13 14 16 16 17 18 17 17 18 19 21 22 23 24 24 25 25 22 20 18 18 18 18 19 19 20 21 22 22 22 21 20 21 20 17 16 17 19 17 14 14 14 18 23 22 24 29 30 30 30 30 31 31 31 33 34 33
Wind_Direction
21 33 46 41 40 35 21 23 26 28 32 40 46 50 52 51 50 43 38 35 33 33 28 22 15 3 352 345 340 336 335 334 335 328 321 326 322 318 321 323 326 335 340 339 341 340 339 335 338 341 342 341 332 331 334 333 333 334 332 324 309 298 289 283 287 293 290 285 281 277 274 272 271 270 271 272 272 270 269 266 258 252 247 238 233
27 39 47 42 39 40 28 27 31 34 36 39 44 50 56 59 61 60 56 48 45 46 43 39 34 26 18 9 357 348 341 337 339 334 329 326 319 318 317 317 315 316 319 328 334 331 332 332 334 337 338 336 328 328 334 333 333 337 337 334 320 303 296 291 286 288 289 286 281 278 275 271 270 270 270 268 270 270 270 268 260 249 240 237 234
53 53 54 44 36 40 34 30 33 40 44 46 51 53 58 62 67 71 70 64 59 57 55 53 51 45 38 33 25 14 4 355 348 342 337 334 331 329 325 320 315 315 320 325 328 325 325 326 327 330 331 328 326 325 327 328 328 331 331 334 331 311 297 297 293 287 287 286 283 277 273 272 271 270 270 268 268 268 268 267 262 252 237 235 236
89 69 65 52 39 42 41 38 41 45 49 55 56 59 61 65 68 69 70 70 69 67 66 61 60 56 52 50 43 35 29 24 12 359 348 345 341 334 327 322 319 319 326 330 328 326 321 318 318 321 324 321 323 325 324 325 324 324 323 329 335 327 307 299 299 294 287 286 286 280 274 272 272 270 270 268 268 268 267 266 262 256 242 236 237
119 101 85 67 46 45 49 44 48 50 52 56 56 61 60 66 69 68 68 66 68 62 62 60 57 54 53 54 49 48 45 46 41 30 20 8 356 343 333 331 327 326 332 331 329 327 322 318 314 312 313 310 314 322 321 321 319 318 318 322 329 333 325 311 304 301 294 285 285 284 277 272 271 272 271 268 268 269 267 266 263 259 250 238 237
149 144 112 83 53 51 58 50 51 55 55 56 54 58 58 63 65 68 70 67 65 57 56 54 52 52 53 51 49 50 48 54 54 46 42 29 15 4 351 346 337 334 337 333 331 328 325 323 317 312 311 307 308 312 316 320 318 315 315 317 320 325 327 324 316 309 301 290 288 288 280 273 273 272 271 269 268 269 267 268 266 261 256 244 238
145 135 112 89 63 65 67 58 56 59 60 59 58 56 56 58 59 63 64 65 64 59 56 51 52 54 55 51 46 44 36 37 46 48 52 43 34 23 8 359 348 343 339 336 338 334 337 337 326 318 316 312 306 304 308 314 314 313 313 313 315 317 317 321 322 316 310 299 291 287 283 279 277 275 271 270 268 269 267 268 269 264 259 250 241
135 127 113 90 78 88 78 69 64 65 66 65 64 59 57 54 54 53 53 59 59 59 56 52 53 52 52 49 47 44 33 31 41 46 51 54 47 34 25 11 357 354 348 342 342 338 343 339 333 329 322 314 303 297 298 302 304 305 307 308 313 316 315 317 318 317 314 305 289 280 282 284 282 279 275 272 270 269 266 266 267 265 260 253 244
136 130 119 92 88 103 91 87 79 76 76 73 74 68 63 57 54 52 51 52 53 55 52 50 51 50 52 49 49 47 38 35 38 34 27 38 41 31 43 29 14 9 355 344 341 341 349 343 336 332 322 312 304 296 293 294 297 301 301 302 307 312 314 315 316 315 309 296 288 284 280 280 280 280 278 275 271 268 265 263 265 264 261 254 245
139 135 127 107 105 109 100 99 92 89 86 83 81 77 71 66 62 57 54 52 49 47 44 43 43 43 43 43 44 42 36 33 28 27 22 23 25 15 27 27 15 2 327 303 306 309 343 351 343 336 317 301 304 305 299 292 292 298 300 301 301 302 307 308 310 310 302 289 286 286 284 282 280 278 277 274 271 269 264 262 264 264 261 256 249
142 140 134 126 126 119 112 105 98 95 89 88 83 80 76 73 70 66 61 55 50 41 36 31 31 31 30 31 31 30 27 25 20 17 16 16 17 16 14 6 350 336 324 321 317 305 304 312 316 320 304 293 302 306 303 298 291 291 295 298 297 295 297 300 302 300 295 291 288 283 283 289 288 282 277 274 273 272 267 264 263 263 260 256 254
148 147 145 140 140 136 129 116 107 100 92 91 86 87 79 76 73 68 66 58 53 45 37 30 27 23 18 18 15 16 13 10 10 8 8 7 6 10 7 359 353 348 341 335 331 326 318 308 304 303 295 293 298 299 297 296 291 287 287 290 292 293 292 293 293 289 287 289 289 286 282 284 286 282 278 276 276 275 271 266 264 264 262 258 256
150 150 153 150 149 148 143 134 122 113 104 100 93 92 85 80 73 65 63 59 55 48 41 35 29 21 17 12 8 3 1 358 356 357 356 356 357 360 359 355 350 347 345 338 332 328 327 323 316 309 303 300 297 295 293 289 287 285 286 287 289 291 290 290 288 284 284 282 281 282 280 277 278 279 281 282 280 277 273 267 263 263 263 261 257
151 148 149 147 148 149 148 145 137 132 120 113 102 93 86 80 73 66 61 57 52 46 42 35 27 19 14 6 4 359 356 354 351 352 349 347 346 346 347 346 341 338 337 335 330 325 322 321 317 314 310 305 301 297 292 287 285 285 284 285 286 288 289 290 289 286 284 282 278 275 275 274 272 272 278 286 283 276 274 270 264 261 262 261 259
151 147 146 141 140 142 143 143 140 138 130 119 109 98 90 84 76 71 64 58 51 43 37 31 26 20 15 7 2 357 354 352 351 350 348 347 343 340 337 335 333 331 330 328 326 323 320 317 313 312 309 306 303 298 296 293 291 289 285 281 282 284 286 287 287 286 283 280 278 274 271 268 267 268 275 285 285 278 275 272 267 262 261 262 261
153 147 146 143 140 139 137 134 131 127 122 114 104 96 89 84 79 75 69 64 55 48 39 32 28 22 19 15 10 5 1 357 354 352 349 347 343 340 336 333 330 327 325 323 321 319 317 315 312 310 308 306 302 299 298 298 296 293 289 285 282 279 281 283 283 282 280 278 276 274 271 268 269 272 275 281 284 281 276 273 271 266 262 262 262
154 149 147 148 144 141 139 133 128 119 112 106 97 90 82 74 70 67 65 65 61 58 52 45 41 36 31 27 24 20 16 12 8 3 360 355 349 345 341 337 334 330 327 323 320 318 315 313 311 309 307 303 299 298 297 297 296 294 293 290 286 283 281 281 281 280 279 276 273 271 270 270 270 271 275 279 281 281 278 275 274 270 264 261 262
155 153 153 151 150 147 142 137 131 125 116 108 98 88 82 74 67 62 59 57 56 55 53 51 49 46 43 39 35 30 27 23 19 15 12 8 2 355 350 346 342 338 333 329 325 321 318 315 312 309 306 302 299 297 297 296 294 293 291 290 289 287 285 284 285 283 280 276 274 271 269 269 269 270 273 277 277 277 278 276 275 274 269 263 262
160 159 160 157 155 152 145 141 135 130 122 111 102 91 84 78 72 67 62 57 53 51 48 47 45 44 42 39 35 31 27 22 18 16 13 11 7 3 0 357 353 348 343 338 333 328 324 320 316 313 309 306 303 301 299 297 295 294 291 289 288 288 288 291 291 287 284 279 275 272 269 266 266 268 270 273 274 274 275 275 275 274 273 268 265
165 162 162 160 155 153 147 144 136 130 123 113 105 97 89 82 77 72 69 64 59 54 49 46 42 40 37 36 34 30 26 22 18 14 11 8 6 4 3 1 358 355 352 348 344 338 333 327 323 319 315 312 309 307 304 301 299 297 294 292 289 289 292 294 291 289 288 283 279 274 270 266 264 267 270 270 270 272 272 273 274 275 275 273 269
167 160 158 155 151 151 146 143 137 131 125 118 108 99 90 82 77 70 66 62 58 54 49 45 42 40 36 36 35 32 29 26 22 17 14 10 7 4 2 1 358 356 355 353 351 348 344 339 334 327 323 318 314 312 310 307 305 303 301 299 296 295 293 290 289 289 288 284 281 277 275 272 268 268 270 270 269 270 271 270 271 273 275 274 272
167 162 160 155 152 154 151 148 142 135 126 116 102 91 84 78 72 66 61 57 54 50 46 42 40 36 33 34 33 30 28 26 22 18 16 13 10 6 4 2 360 358 356 354 352 351 349 347 344 340 335 330 325 322 318 313 311 309 307 307 307 303 296 291 289 289 287 285 283 278 275 274 272 270 270 270 269 269 269 270 270 271 273 273 272
172 169 166 164 164 162 160 159 154 143 128 112 99 90 85 80 73 66 60 54 49 44 41 38 34 31 29 31 30 25 24 23 17 14 14 12 9 5 5 3 1 360 357 356 355 353 351 349 348 345 344 343 341 337 331 325 319 315 313 313 311 305 300 298 294 290 287 284 281 277 275 274 272 271 271 269 268 268 268 269 269 270 272 272 272
176 171 168 170 170 168 168 167 161 149 137 120 108 102 95 89 79 70 62 54 47 41 37 33 29 26 25 26 24 19 20 19 12 12 13 10 8 5 4 3 1 360 358 358 357 355 353 352 351 349 349 348 347 345 340 336 331 325 321 316 311 307 304 302 297 292 287 284 282 280 278 276 273 272 271 269 267 266 267 267 268 269 270 271 271
174 169 169 173 172 173 174 171 167 158 152 140 127 120 108 100 88 75 67 58 49 44 36 30 26 22 22 21 19 16 18 17 13 13 12 10 8 5 5 4 2 0 359 0 359 357 356 355 353 353 352 349 347 345 342 339 335 331 326 320 315 310 306 303 298 293 289 286 283 281 280 278 275 273 272 269 267 265 265 265 266 267 267 269 270
173 171 170 174 174 177 177 174 173 168 164 154 140 130 122 113 101 88 75 64 53 45 36 29 23 19 18 16 15 15 15 15 13 13 12 11 9 7 6 4 3 3 2 1 359 358 358 357 354 352 351 349 346 343 341 339 334 329 325 322 319 315 309 303 298 294 291 288 284 282 281 280 278 276 273 271 270 268 266 266 266 266 266 266 268
175 174 172 174 177 180 182 178 177 176 171 160 144 135 133 123 111 97 81 69 55 46 36 27 20 15 12 11 11 12 12 11 10 10 11 10 9 8 6 5 5 4 3 2 0 360 359 356 353 351 348 345 343 341 339 334 331 326 321 319 318 316 312 306 299 295 291 289 287 285 284 283 282 280 276 272 270 267 266 267 266 265 265 264 264
178 176 174 176 180 182 182 180 181 181 174 161 148 142 140 126 112 98 83 71 57 47 36 29 19 12 10 9 9 9 9 8 8 9 9 9 7 6 6 5 5 5 4 2 0 359 358 357 353 350 346 341 337 334 331 327 327 321 314 312 311 311 310 307 304 299 295 291 288 287 285 283 280 279 277 274 272 269 266 266 265 264 264 264 263
182 179 178 179 183 184 182 182 184 183 178 168 159 153 146 131 120 107 91 74 60 49 36 29 19 11 7 4 5 6 7 7 8 8 8 7 4 4 4 3 3 4 2 1 359 358 358 356 353 350 346 342 336 331 325 321 320 315 310 307 307 307 305 304 303 301 298 294 290 289 288 286 283 281 278 276 274 272 269 267 267 267 266 265 263
185 181 181 181 184 185 183 184 187 186 182 173 166 163 156 148 141 130 107 84 65 48 37 27 18 10 3 360 2 5 7 7 5 4 4 3 2 1 0 0 1 360 360 359 357 355 355 354 351 347 342 338 334 330 325 319 315 312 309 304 303 302 299 298 298 298 297 294 293 293 293 292 289 286 283 280 276 273 271 268 266 266 267 265 263
184 183 183 183 187 187 185 188 192 190 184 178 175 171 167 167 162 148 129 102 72 54 43 27 19 8 358 358 1 5 4 1 359 358 359 359 358 356 355 356 356 356 356 355 353 352 352 350 347 345 342 338 334 330 325 319 316 313 309 304 303 300 296 294 292 293 292 292 292 292 295 295 293 291 288 284 281 276 272 269 267 265 264 263 263
185 185 183 186 190 187 188 192 194 192 186 185 183 179 181 184 179 168 159 126 85 64 45 26 16 358 350 354 356 357 354 352 352 352 355 356 354 352 352 352 351 351 351 349 350 351 349 345 343 342 340 337 334 332 330 323 315 312 309 306 305 300 297 294 290 290 289 289 290 290 292 293 293 292 291 288 284 281 276 271 268 267 265 263 261
187 187 186 191 190 186 190 192 194 194 188 190 189 190 195 193 188 181 178 154 114 79 51 19 360 341 338 340 342 344 343 346 347 348 351 350 350 349 348 348 346 346 347 347 348 348 345 342 341 339 336 333 329 326 327 322 314 312 310 307 305 301 299 295 290 289 288 288 288 287 288 289 290 290 291 290 287 284 281 276 271 267 266 264 262
185 186 192 193 191 190 193 193 194 194 191 194 193 195 199 195 191 186 187 175 160 182 343 321 319 317 321 325 329 334 336 339 340 343 345 344 345 343 342 343 342 343 346 345 344 345 342 339 339 335 331 329 324 321 320 314 310 309 309 307 302 298 298 294 291 290 288 289 289 287 285 285 286 285 286 288 288 286 283 280 276 270 266 266 265
186 189 194 193 195 197 196 195 194 193 194 196 196 199 200 194 190 189 194 189 188 223 259 274 289 294 305 316 320 324 327 330 333 336 338 339 338 334 334 335 337 341 342 341 341 342 339 337 337 332 328 325 320 321 318 310 307 304 303 302 297 295 295 292 290 289 288 288 286 286 287 285 282 280 281 282 284 285 283 280 277 273 268 265 265
191 193 193 191 196 199 198 197 194 194 195 197 199 200 199 195 194 196 201 200 207 227 251 260 273 284 294 304 308 314 320 323 326 330 332 333 331 326 325 327 334 338 337 337 339 338 334 333 334 329 324 321 317 319 316 311 307 303 302 300 297 296 292 289 288 287 286 285 282 282 284 285 283 281 280 278 278 280 282 282 279 276 271 266 262
194 196 193 191 193 196 198 197 195 196 195 198 200 199 198 198 200 205 210 210 216 231 247 256 266 275 285 292 298 306 311 316 319 322 325 323 323 321 320 323 330 333 331 332 332 330 330 327 326 323 317 315 313 312 312 310 306 304 304 300 298 295 289 284 284 285 284 281 280 280 278 278 281 283 282 279 276 278 280 281 282 280 276 271 266
196 197 196 195 192 194 197 195 197 196 194 198 199 200 200 200 204 209 215 217 224 236 244 251 261 268 278 284 290 299 300 307 312 315 317 316 316 316 317 320 324 327 324 322 322 324 325 320 316 315 312 309 306 307 308 307 304 302 300 298 296 291 287 284 281 281 279 276 276 277 276 274 275 276 277 278 278 277 278 278 280 280 278 274 271
196 196 197 197 193 194 197 195 198 196 194 197 198 200 200 202 207 211 218 222 230 240 246 249 258 265 271 278 285 291 290 296 305 309 313 313 314 314 313 315 317 319 314 313 318 319 318 316 311 307 307 305 302 304 306 306 304 299 295 297 295 288 284 282 279 276 273 272 273 274 275 273 272 271 271 274 276 277 277 278 278 277 276 275 273
196 195 196 198 195 195 196 196 198 196 193 195 196 197 196 199 203 208 218 225 233 241 248 251 255 261 264 272 280 285 284 289 300 306 309 311 312 310 307 308 308 306 303 303 308 310 310 310 305 302 306 305 302 301 303 307 306 299 295 294 292 287 284 279 273 272 271 270 270 272 273 271 272 272 271 271 271 273 274 276 276 273 273 275 274
196 195 196 197 196 196 196 195 196 197 194 193 194 194 191 193 197 203 210 215 230 240 249 252 254 258 260 267 275 280 282 289 299 303 305 307 307 303 300 300 299 294 291 293 298 302 303 301 299 301 302 303 302 301 304 310 308 306 308 303 294 288 283 276 268 265 268 269 268 270 272 272 274 274 275 274 272 272 273 274 275 273 272 273 274
195 196 197 198 197 196 198 196 196 198 197 195 196 196 194 194 194 200 205 209 225 236 242 245 251 256 259 264 270 277 283 291 298 300 301 303 302 297 294 294 294 293 288 288 293 296 297 296 299 303 302 298 297 298 304 310 310 315 317 309 306 302 289 272 265 263 263 268 270 274 277 277 279 280 279 277 276 275 274 274 274 274 274 273 273
195 196 198 198 196 196 198 197 199 200 199 199 200 199 199 200 198 198 205 214 226 235 238 242 249 255 258 263 270 277 284 290 294 298 300 302 301 296 292 288 287 287 286 288 292 294 297 297 298 302 304 300 295 294 298 299 304 312 310 299 314 321 308 288 271 275 278 280 279 279 279 278 277 280 281 279 277 277 275 274 275 274 274 273 272
195 196 197 196 196 198 198 197 201 203 202 204 204 201 203 207 208 210 218 227 235 243 249 254 256 257 261 266 273 279 284 288 291 296 298 300 300 292 285 282 281 286 289 290 291 291 295 298 299 301 303 304 302 299 295 285 287 302 311 303 308 306 298 320 322 301 292 282 278 276 274 276 277 277 278 278 277 277 276 275 275 274 272 270 270
197 198 197 197 198 199 199 199 202 204 204 206 205 201 203 206 210 217 227 236 240 244 248 252 253 255 260 264 270 279 285 288 292 296 295 297 296 285 278 280 286 294 295 291 289 292 296 298 299 299 297 298 299 299 294 282 269 261 262 285 301 293 291 320 323 305 299 289 281 280 275 273 276 276 276 275 274 275 275 275 273 271 271 271 270
200 201 200 200 201 201 200 201 203 203 204 206 204 200 201 201 201 207 214 222 228 231 233 237 241 250 260 267 275 284 288 291 295 297 296 297 296 290 287 291 298 304 302 297 294 296 298 296 296 295 291 287 288 292 290 283 271 255 243 245 256 264 287 311 318 305 305 299 285 281 277 274 276 276 275 273 272 272 272 274 274 272 271 271 268
202 202 202 201 202 201 200 202 203 203 204 204 202 201 200 199 202 206 212 218 225 228 234 245 252 259 268 276 284 289 292 295 298 299 300 300 300 299 300 303 308 310 309 307 303 302 301 298 296 290 285 283 279 281 285 288 283 265 249 245 248 252 261 278 286 293 305 302 292 282 276 277 277 274 273 271 271 271 272 272 273 272 271 269 267
201 201 201 200 201 200 201 202 203 204 204 203 202 203 200 200 205 210 218 226 232 236 241 252 260 267 274 281 286 289 293 297 299 301 302 301 300 301 303 308 312 313 312 311 306 304 301 295 290 284 279 277 272 274 281 285 283 276 267 258 255 255 253 255 260 268 285 297 297 289 278 278 278 273 272 272 271 270 271 271 270 271 270 266 265
200 201 200 199 200 200 201 202 203 204 204 203 203 205 203 203 207 211 219 226 234 240 243 250 259 268 275 280 285 289 293 298 301 303 304 303 302 303 307 312 314 313 312 310 308 305 298 288 282 277 273 272 268 269 274 277 276 276 276 271 265 261 258 256 255 256 259 271 287 292 289 287 282 276 273 273 273 271 270 270 269 269 268 266 264
202 203 200 199 199 199 201 202 203 203 204 203 203 206 207 207 210 212 216 221 228 237 242 248 256 266 274 279 283 287 292 298 303 304 306 307 307 310 314 317 316 313 311 311 311 306 296 283 278 275 270 270 269 266 266 270 272 271 269 269 268 263 261 260 253 250 254 257 268 282 289 290 286 280 277 274 273 272 270 269 268 267 265 264 263
202 201 199 200 199 199 201 202 202 202 202 202 203 205 208 210 213 216 219 221 224 232 239 245 251 260 267 273 278 282 290 295 299 302 305 307 310 315 318 318 317 314 312 311 307 301 293 286 281 275 270 269 269 268 266 266 267 267 264 259 259 259 257 258 257 256 257 257 265 273 280 285 285 281 278 276 273 271 270 268 267 267 265 263 262